sat.trackr.live / text

‹ back to catalog

STARLINK-37291

NORAD 68560 · 2026-070U

PAYLOAD ACTIVE UNKNOWN

§ Identity

Operator
Country
US
Launch date
2026-04-02
Launch site
AFETR
Launch vehicle
Mass (kg)
RCS (m²)

Purposes: comms

External: N2YO · Heavens-Above · Gunter

§ Orbital elements

Epoch: 2026-09-19T06:53:30.429600Z

Period
93.85 min
Inclination
53.1577°
Eccentricity
0.0001110
Mean motion
15.34411345 rev/d
Perigee alt
461.9 km
Apogee alt
463.4 km
Semi-major
6,840.8 km
B*
4.1458e-4
RAAN
179.2088°
Arg perigee
96.6490°
Mean anomaly
263.4638°
Rev number
2,625

§ Raw data

STARLINK-372911 68560U 26070U   26262.28715775  .00013662  00000+0  41458-3 0  99922 68560  53.1577 179.2088 0001110  96.6490 263.4638 15.34411345 26255

JSON: /api/v1/satellites/68560 · /tle

For live sub-satellite position, see the globe view (requires WebGL).

§ Visibility from observer

Set your observer location to see the next 7 days of passes ≥ 10°. The values pass through the URL so the page stays shareable.

No JS? Fill the form by hand. The geolocation button needs JavaScript.